Location: Oberkirch
(48.5323°N, 8.0787°E)
Time: 15:51:54
(UTC+00:00)

S-56A Canister/Altair - Pass Details

Date: 16 February 2026
Orbit: 633 x 2484 km, 38.9° (Epoch: 7 March)

Event Time Altitude Azimuth Distance (km) Brightness Sun altitude
Exits shadow 02:03:46 32° 129° (SE) 2,676 10.2 -43.4°
Drops below altitude 10° 02:10:08 10° 111° (ESE) 4,455 11.7 -42.6°
Sets 02:14:25 0° 106° (ESE) 5,700 12.4 -42.0°
